Info for pilots

Image

Airfield Info:

EBUL
N51 08.7 - E003 28.6
ELEV 95' / 29m
RWY 07 / 25
799m * 45m (CIV) - 2980m (MIL)
Ursel Radio 135.130
Tel Aero Club Brugge : +32(0)9 374 25 75
Tel Vliegclub Ursel : +32(0)9 374 12 90

Operational Hours
FRI: 14h00LT - SS+30 MIN
SAT, SUN and HOL: TKOF and LDG: 10h00LT - SS+30 MIN
After 20h00LT to SS+30 MIN: only LDG allowed (PN)

Local Traffic Regulations
The use of the AD is subject to PPR from the OPR;
AD given in concession to the CIV club outside MIL ACT;
Solo training flights can only be performed after two reconnaissance flights with instructor. The solo training flight must be performed within six weeks after the first reconnaissance flight;
Jet aircraft operations not allowed.

Obstacles:
trees between 10M AGL and 22M AGL, caution when crosswind:
North of the RWY, 75M from CL, along the whole length of the RWY;
South of the RWY, 75M from CL, and at THR RWY 25 from THR RWY 07 to 140M east of THR RWY 07



Image

Image

Watch out!

Flight Procedures
RWY 07 and 25 left hand circuit, 1.200 FT QNH

Image

Taxi procedures:
RWY 07 (TKOF):
taxi on the north side of the RWY to the HLDG position of RWY 07

RWY 07 (LDG):
after landing roll out to the second intersection (THR RWY 25), turn left, turn left again, taxi via the TWY to the first intersection, turn left, cross the RWY (check for landing ACFT), taxi on the south side of the RWY to the AD reporting office

RWY 25 (TKOF):
taxi on the north side of the first intersection, turn left, next turn right, taxi via the TWY to the second intersection, turn right, taxi to the HLDG of RWY 25

RWY 25 (LDG):
after landing roll out to the end of the RWY, taxi on the south side of the RWY to the AD reporting office.





Image

Taxi & Circuit?

Image
Image
Image
Image

Current Metars - Auto refresh

EBOS - Oostende
2019/03/23 16:20 EBOS 231620Z 03013KT 9999 BKN040 09/05 Q1032 NOSIG


EBAW - Antwerpen
2019/03/23 16:20 EBAW 231620Z 02005KT 350V050 8000 SCT018 BKN028 11/08 Q1031 TEMPO 5000 BR BKN014


EBBR - Brussel
2019/03/23 16:20 EBBR 231620Z 36003KT 7000 -RA SCT015 BKN023 11/08 Q1030 TEMPO 4500 -DZRA SCT008 BKN012

Source : NOAA.GOV

Current TAFs - Auto refresh

EBOS - Oostende
2019/03/23 12:48 TAF EBOS 231110Z 2312/2418 04012KT 7000 SCT015 BKN020 TEMPO 2312/2314 4000 -DZRA SCT010 BKN014

EBAW - Antwerpen
2019/03/23 15:27 TAF TAF EBAW 231404Z 2315/2324 02007KT 7000 SCT015 BKN025 TEMPO 2315/2317 4500 -DZRA SCT008 BKN012

EBBR - Brussel
2019/03/23 12:55 TAF EBBR 231110Z 2312/2418 03006KT 7000 SCT020 BKN030 TEMPO 2316/2319 4000 -DZRA SCT008 BKN012

Source : NOAA.GOV
Image

Webcam

Direction runway 07 :